Flag for U.S.A. Weather past 2 weeks in Helena, Montana, U.S.A.

14 °F


Feels Like: 14 °F
Forecast: 5 / 27 °F
Wind: No wind

Location: Helena Regional Airport

Current Time: Nov 30, 2015 at 2:51:07 PM

Latest Report: Nov 30, 2015 at 1:53 PM

Visibility: 6 mi

Pressure: 30.33 "Hg (25.83 "Hg at 1239m altitude)

Humidity: 73%

Dew point: 7 °F

Location of HelenaLocation

Historic Weather in Helena — Graph


Helena temperature yesterday

Maximum temperature yesterday: 14 °F (at 1:53 PM)
Minimum temperature yesterday: 0 °F (at 1:53 AM)
Average temperature yesterday: 6 °F

Past Weeks' High & Low Weather Summary

High53 °F (Nov 17, 3:53 PM)96% (Nov 30, 12:53 AM)30.80 "Hg (Nov 30, 12:53 AM)
Low-5 °F (Nov 26, 7:53 AM)23% (Nov 21, 3:53 PM)29.31 "Hg (Nov 17, 11:53 PM)
Average22 °F64%30.25 "Hg
* Reported Nov 15 1:53 PM — Nov 30 1:53 PM, Helena, Weather by CustomWeather, © 2015

Note: Actual official high and low records may vary slightly from our data, if they occured in-between our weather recording intervals... More about our weather records


Helena weather history for previous 24 hours

Time TempWeatherWind HumidityBarometerVisibility
1:53 PM
Mon, Nov 30
14 °FSunny.No wind73%30.33 "Hg6 mi
12:53 PM11 °FHaze.3 mph77%30.36 "Hg3 mi
12:01 PM11 °FLight snow. Partly sunny.No wind77%30.10 "Hg1 mi
11:57 AM10 °FPartly sunny.No wind80%30.10 "Hg2 mi
10:53 AM7 °FLight snow. Ice fog.5 mph83%30.41 "Hg1 mi
9:53 AM6 °FLight snow. Ice fog.No wind83%30.41 "Hg1 mi
8:53 AM4 °FIce fog.No wind91%30.40 "Hg0 mi
7:53 AM3 °FIce fog.3 mph91%30.40 "Hg1 mi
6:58 AM2 °FIce fog.No wind92%30.11 "Hg1 mi
6:04 AM1 °FIce fog.No wind87%30.10 "Hg0 mi
4:53 AM0 °FLow clouds.No wind79%30.38 "Hg5 mi
3:53 AM-1 °FIce fog.No wind82%30.37 "Hg1 mi
2:53 AM-1 °FIce fog.3 mph86%30.37 "Hg0 mi
1:53 AM1 °FIce fog.No wind87%30.36 "Hg0 mi
12:53 AM0 °FIce fog.No wind96%30.37 "Hg0 mi
12:03 AM0 °FIce fog.No wind83%30.10 "Hg6 mi
10:53 PM
Sun, Nov 29
0 °FIce fog.No wind83%30.39 "Hg6 mi
9:53 PM3 °FClear.No wind79%30.38 "Hg7 mi
8:53 PM5 °FClear.5 mph83%30.38 "Hg7 mi
7:53 PM4 °FIce fog.No wind84%30.40 "Hg5 mi
6:53 PM6 °FIce fog.No wind83%30.40 "Hg6 mi
5:53 PM8 °FClear.No wind83%30.40 "Hg7 mi
4:53 PM9 °FClear.No wind80%30.42 "Hg6 mi
3:53 PM13 °FSunny.No wind77%30.41 "Hg8 mi
2:53 PM14 °FSunny.No wind73%30.41 "Hg8 mi
Weather by CustomWeather, © 2015

See weather overviewHow to use our weather pages